Probability
0 0 0 0 0 0 0 0 0 0 0 0 0 0 0 0 0 0 0 0 0 0 0 0 0 0 0 0 0 0 0 0 0 0 1 1 1 0
0 0 0 0 0 0 0 0 0 0 0 0 0 0 0 0 0 0 0 0 0 0 0 0 0 0 0 0 0 0 0 0 0 0 0 0 0 0
0 0 0 0 0 0 0 0 0 0 0 0 0 0 0 0 0 0 0 0 0 0 0 0 0 0 0 0 0 0 0 0 0 0 0 0 0 0
0 0 0 0 0 0 0 0 0 0 0 0 0 0 0 0 0 0 0 0 0 0 0 0 0 0 0 0 0 0 0 0 0 0 0 0 0 0
0 0 0 0 0 0 0 0 0 0 0 0 0 0 0 0 0 0 0 0 0 0 0 0 0 0 0 0 0 0 0 0 0 0 0 0 0 0
0 0 0 0 0 0 0 0 0 0 0 0 0 0 0 0 0 0 0 0 0 0 0 0 0 0 0 0 0 0 0 0 0 0 0 0 0 0
0 0 0 0 0 0 0 0 0 0 0 0 0 0 0 0 0 0 0 0 0 0 0 0 0 0 0 0 0 0 0 0 0 0 0 0 0 0
0 0 0 0 0 0 0 0 0 0 0 0 0 0 0 0 0 0 0 0 0 0 0 0 0 0 0 0 0 0 0 0 0 0 0 0 0 0
0 0 0 0 0 0 0 0 0 0 0 0 0 0 0 0 0 0 0 0 0 0 0 0 0 0 0 0 0 0 0 0 0 0 0 0 0 0
0 0 0 0 0 0 0 0 0 0 0 0 0 0 0 0 0 0 0 0 0 0 0 0 0 0 0 0 0 0 0 0 0 0 0 0 0 0
0 0 0 0 0 0 0 0 0 0 0 0 0 0 0 0 0 0 0 0 0 0 0 0 0 0 0 0 0 0 0 0 0 0 0 0 0 0
0 0 0 0 0 0 0 0 0 0 0 0 0 0 0 0 0 0 0 0 0 0 0 0 0 0 0 0 0 0 0 0 0 0 0 0 0 0
0 0 0 0 0 0 0 0 0 0 0 0 0 0 0 0 0 0 0 0 0 0 0 0 0 0 0 0 0 0 0 0 0 0 0 0 0 0
0 0 0 0 0 0 0 0 0 0 0 0 0 0 0 0 0 0 0 0 0 0 0 0 0 0 0 0 0 0 0 0 0 0 0 0 0 0
0 0 0 0 0 0 0 0 0 0 0 0 0 0 0 0 0 0 0 0 0 0 0 0 0 0 0 0 0 0 0 0 0 0 0 0 0 0
0 0 0 0 0 0 0 0 0 0 0 0 0 0 0 0 0 0 0 0 0 0 0 0 0 0 0 0 0 0 0 0 0 0 0 0 0 0
0 0 0 0 0 0 0 0 0 0 0 0 0 0 0 0 0 0 0 0 0 0 0 0 0 0 0 0 0 0 0 0 0 0 0 0 0 0
0 0 0 0 0 0 0 0 0 0 0 0 0 0 0 0 0 0 0 0 0 0 0 0 0 0 0 0 0 0 0 0 0 0 0 0 0 0
0 0 0 0 0 0 0 0 0 0 0 0 0 0 0 0 0 0 0 0 0 0 0 0 0 0 0 0 0 0 0 0 0 0 0 0 0 0
0 0 0 0 0 0 0 0 0 0 0 0 0 0 0 0 0 0 0 0 0 0 0 0 0 0 0 0 0 0 0 0 0 0 0 0 0 0
0 0 0 0 0 0 0 0 0 0 0 0 0 0 0 0 0 0 0 0 0 0 0 0 0 0 0 0 0 0 0 0 0 0 0 0 0 0
0 0 0 0 0 0 0 0 0 0 0 0 0 0 0 0 0 0 0 0 0 0 0 0 0 0 0 0 0 0 0 0 0 0 0 0 0 0
0 0 0 0 0 0 0 0 0 0 0 0 0 0 0 0 0 0 0 0 0 0 0 0 0 0 0 0 0 0 0 0 0 0 0 0 0 0
Wind_Speed
2 2 2 2 2 2 1 2 2 3 3 2 1 1 1 1 3 2 2 5 7 6 6 5 6 6 6 6 7 7 8 8 9 8 9 7 7 7
2 2 2 2 1 1 2 2 2 3 3 2 2 2 2 2 4 3 2 5 6 6 6 5 6 6 6 6 7 7 7 8 8 8 7 6 7 7
2 2 3 2 2 2 2 2 2 2 3 3 2 2 2 2 3 2 2 1 2 5 5 5 6 6 6 6 6 7 7 7 8 8 6 6 6 6
2 2 2 2 2 2 2 2 2 2 2 4 3 2 2 2 2 2 2 2 2 4 5 5 6 6 6 6 6 6 7 8 7 6 6 6 6 7
2 2 3 3 2 2 2 2 2 2 2 2 3 2 2 2 2 2 2 2 3 3 4 4 5 6 6 6 6 7 7 6 6 6 7 7 7 7
2 2 3 3 3 3 2 2 2 2 1 2 2 2 2 2 1 1 2 2 2 3 4 4 5 6 6 7 6 6 6 6 6 7 6 6 6 6
2 2 2 2 3 3 2 1 1 1 1 2 2 2 2 1 2 2 2 2 2 1 2 2 2 2 3 5 5 6 6 6 6 6 6 6 6 6
3 2 2 3 3 4 3 3 2 2 2 2 2 3 2 2 1 1 1 1 2 1 2 3 2 2 2 2 5 7 6 6 6 6 6 6 6 6
2 2 2 1 2 1 2 3 3 4 4 3 3 3 3 2 2 2 2 2 2 2 1 2 2 2 3 3 6 7 7 6 6 6 6 6 6 6
1 1 1 1 1 0 0 1 1 2 3 2 3 3 3 3 3 3 2 1 1 1 1 2 2 2 3 3 5 6 6 6 6 6 6 6 6 6
1 1 1 1 1 1 0 1 1 2 3 3 3 3 4 4 2 1 1 0 2 2 1 0 1 3 3 2 3 6 6 7 7 6 6 6 6 6
1 1 1 1 1 2 1 1 2 2 2 2 2 3 2 1 1 1 2 1 1 2 1 0 1 2 3 2 2 3 4 5 6 6 7 7 7 3
1 1 1 1 2 2 2 1 2 1 0 1 1 1 1 1 1 1 1 1 2 2 2 1 1 1 1 3 3 3 3 3 3 3 5 7 7 4
1 1 1 1 2 2 2 2 2 2 1 0 1 1 1 1 1 1 1 1 1 2 2 2 2 2 1 2 3 3 3 3 2 3 3 5 5 6
1 1 1 1 1 1 2 3 2 1 1 1 1 1 1 1 0 1 1 1 2 3 2 2 2 2 2 2 2 3 3 3 2 2 3 3 3 2
1 1 1 1 1 2 2 2 1 1 1 1 1 1 1 0 0 1 1 1 2 3 3 2 1 1 2 2 2 3 2 2 3 3 2 3 2 2
0 0 0 1 1 1 1 1 1 1 1 1 0 0 1 1 1 1 1 1 1 1 3 3 3 2 1 2 1 1 1 2 2 3 2 3 2 2
1 1 1 1 1 1 1 1 1 1 1 1 1 1 1 1 1 1 1 0 1 1 1 2 2 3 2 2 1 1 1 2 2 3 2 2 3 2
1 1 1 1 1 1 1 1 1 1 1 1 1 1 1 1 1 1 1 1 1 1 2 2 1 1 2 3 3 2 1 2 2 2 2 2 2 3
1 1 1 1 1 2 2 1 1 1 1 1 1 1 1 1 1 1 1 1 1 1 2 2 2 2 1 1 1 3 3 2 2 2 3 2 2 2
1 1 1 1 1 1 1 1 1 1 1 1 1 1 1 1 1 1 1 1 1 1 2 2 3 3 1 1 1 2 3 4 3 2 2 2 2 2
1 1 1 1 1 1 1 1 1 1 1 1 1 1 1 1 1 1 1 1 1 1 2 2 2 2 1 1 1 2 3 4 4 5 3 2 1 0
1 1 1 1 1 1 1 1 1 1 1 1 1 1 1 1 1 1 1 0 0 1 1 1 2 2 2 1 1 1 2 3 3 4 4 6 5 2
Wind_Direction
226 236 241 241 237 244 237 216 230 277 282 265 298 300 323 304 297 300 289 307 315 317 320 323 325 326 325 326 323 322 322 318 317 312 311 306 304 307
225 230 243 242 233 234 236 244 237 248 272 282 283 291 301 306 305 306 288 312 317 316 317 319 321 323 322 319 322 323 323 322 319 311 305 310 308 310
248 239 242 246 234 227 230 238 246 242 262 286 282 282 291 295 304 303 300 288 301 311 314 323 324 325 326 325 325 326 325 322 317 313 313 316 313 314
239 244 253 252 243 234 232 236 240 241 246 274 286 284 284 287 300 307 320 327 318 319 326 328 328 329 331 331 332 332 329 322 319 321 322 318 320 320
234 237 250 247 244 239 235 237 242 253 249 256 278 285 286 291 310 322 327 324 325 324 331 338 337 334 330 329 329 327 326 326 328 330 325 321 317 320
236 235 241 243 246 240 239 237 239 242 246 250 268 280 285 293 304 310 316 325 327 332 334 331 327 328 329 325 325 325 326 331 331 331 327 323 322 322
242 243 243 265 280 271 261 248 240 233 242 247 257 276 279 273 280 291 301 313 327 330 337 326 328 331 332 334 337 337 335 336 335 338 341 338 333 329
239 244 245 251 271 284 290 297 287 248 237 245 254 256 269 270 287 283 281 301 304 319 347 328 337 327 322 323 333 336 335 334 335 337 337 337 339 338
242 236 238 257 268 266 295 306 316 307 282 260 250 254 257 254 257 263 269 283 274 270 332 309 323 324 321 326 329 326 329 332 337 340 337 336 339 339
241 235 209 218 251 253 278 312 302 299 285 274 256 258 258 246 230 232 245 288 303 304 352 298 309 315 318 318 321 319 325 333 337 340 339 336 337 338
241 235 212 212 301 310 286 287 302 310 321 308 290 282 289 279 266 186 165 150 302 309 337 243 291 316 312 307 323 330 332 336 336 339 341 342 340 335
259 244 232 249 292 310 276 231 272 293 325 336 336 334 332 342 344 216 199 214 270 282 259 276 282 330 324 315 326 328 327 331 335 338 342 344 339 332
239 259 256 283 287 297 297 257 273 298 300 302 314 323 340 360 348 331 291 236 256 265 256 288 279 302 280 304 319 320 321 327 331 332 342 343 340 338
242 253 261 299 294 292 296 314 312 315 312 304 303 307 325 337 341 347 1 349 300 264 258 262 260 263 277 293 298 312 325 327 333 336 336 345 345 343
242 273 311 309 317 297 319 339 330 301 276 287 289 299 308 300 328 9 29 17 360 340 317 295 273 269 268 262 275 290 310 324 342 346 336 336 331 328
243 244 274 298 321 331 333 325 321 314 294 274 294 317 339 342 330 340 336 353 4 348 352 356 328 292 291 288 270 282 300 306 325 331 332 331 330 323
214 166 212 220 250 284 296 304 298 312 317 309 293 317 332 333 332 356 359 352 353 337 341 352 6 13 332 276 269 278 310 321 313 321 333 332 327 327
193 198 221 220 230 244 251 259 266 273 276 286 297 298 284 295 326 342 344 353 338 326 329 331 353 2 11 6 330 243 299 319 323 323 328 330 325 329
188 211 226 230 238 245 247 248 251 260 256 256 259 267 284 307 318 314 318 336 335 328 320 315 326 360 6 344 331 347 330 328 336 335 336 329 310 313
203 218 229 234 244 240 235 241 253 261 251 247 241 243 256 277 280 285 297 310 321 331 332 335 339 338 323 285 289 316 339 334 339 336 332 332 318 318
230 232 231 229 238 240 243 239 233 239 246 243 240 237 247 258 268 284 304 321 335 335 327 322 325 332 341 29 9 338 340 348 333 310 317 334 341 350
241 237 232 226 225 226 235 230 225 225 228 234 239 239 243 247 249 255 262 293 319 332 333 332 337 348 6 34 17 348 348 353 5 6 358 341 290 275
238 246 245 226 223 223 226 225 227 227 228 230 237 247 253 263 266 254 260 267 328 341 350 354 352 359 14 34 35 10 3 355 2 9 4 4 13 10